Regional Weather Roundup
Issued by NWS Goodland, KS

Home | Current Version | Previous Version | Text Only | Print | Product List | Glossary On
Versions: 1 2 3 4 5 6 7 8 9 10 11 12 13 14 15 16 17 18 19 20 21 22 23 24 25 26 27 28 29 30 31 32 33 34 35 36 37 38 39 40 41 42 43 44 45 46 47 48 49 50
000
ASUS43 KGLD 140808
RWRGLD

GOODLAND FORECAST AREA HOURLY WEATHER ROUNDUP
NATIONAL WEATHER SERVICE GOODLAND KS
100 AM MST THU DEC 14 2017

...OFFICIAL OBSERVATIONS...

CITY           SKY/WX    TMP DP  RH WIND       PRES   REMARKS
GOODLAND KS    CLOUDY    37  19  48 N9        30.10S
HILL CITY KS   CLOUDY    39  23  52 NW12      30.10R
IMPERIAL NEB   CLOUDY    36  21  54 W7        30.12S
MCCOOK NEB     CLOUDY    38  23  55 W9        30.11R
AKRON CO       LGT SNOW  30  25  81 N9        30.15R
BURLINGTON CO  LGT SNOW  34  27  75 N10       30.12S
LIMON CO       CLOUDY    31  23  72 N17       30.14R WCI  19
$$

...UNOFFICIAL OBSERVATIONS...

CITY           SKY/WX    TMP DP  RH WIND       PRES   REMARKS
COLBY KS       CLOUDY    37  25  60 N9        30.11F
LENORA KS        N/A     36  32  85 NW6         N/A
NORTON KS      MOCLDY    36  19  51 W9        30.09
SHARON SPRINGS   N/A     36  21  54 NW5         N/A
TRIBUNE KS     CLOUDY    37  19  48 NW9       30.13S
TRENTON NEB      N/A     37  32  82 NW5         N/A
KIT CARSON CO    N/A     34  16  47 CALM        N/A
YUMA CO        FLURRIES  32  25  74 N10       30.14R
$$



USA.gov is the U.S. government's official web portal to all federal, state and local government web resources and services.